Location: Ústí nad Labem
(50.6611°N, 14.0531°E)
Time: 11:07:06
(UTC+02:00)

Envisat - Pass Details

Date: 08 March 2024
Orbit: 762 x 764 km, 98.3° (Epoch: 21 April)

Event Time Altitude Azimuth Distance (km) Brightness Sun altitude
Rises 01:57:04 0° 30° (NNE) 3,242 7.1 -39.3°
Reaches altitude 10° 02:00:54 10° 60° (ENE) 2,308 6.1 -39.0°
Enters shadow 02:02:55 12° 84° (E) 2,135 5.7 -38.8°
